ONEWEB-0241 (48773 NORAD) Tracking and Keplerian Element Data

This shows tracking and keplerian element data for the satellite.

Feedback or suggestion? Click here.




ElementValue
Catalog48773
NameONEWEB-0241
Epoch Orbit185
Epoch Day170.58334491
Epoch Year2021
RAAN268.8724
Inclination87.4065
Eccentricity0.0007502
Argument of Perigee158.0188
Mean Anonmoly315.7225
Mean Motion15.33481034
Decay Rate-0.00903349
L11 48773U 21045G 21170.58334491 -.00903349 00000-0 -30432-1 0 9992
L22 48773 87.4065 268.8724 0007502 158.0188 315.7225 15.33481034 1854

Live tracking and technical data element details for ONEWEB-0241 (NORAD 48773). ONEWEB-0241 can be tracked NOW for your location showing map with azimuth and elevation plus other details from your city location.

Track the satellite on the map from your city or location and see movement details for azimuth, elevation, latitude, longitude, range, height, and movement on the map or in text.







IsCatalogInMostPopularTable: catalog: 48773, numindb: 3
Update: records affected: 1



GetName: 48773 ONEWEB-0241

Hit Count: updated at: Mon, 21 Jun 2021 03:05:39 GMT